Weather History for New Iberia, LA

Change the Weather History Date:

Monday, February 18, 2013

  Actual Average Record
Temperature  
Mean Temperature 59 °F 56 °F  
Max Temperature 70 °F 66 °F 83 °F (1956)
Min Temperature 47 °F 46 °F 30 °F (1969)
Degree Days  
Heating Degree Days 6 9  
Month to date heating degree days 106 196  
Since 1 July heating degree days 822 1133  
Cooling Degree Days 0 1  
Month to date cooling degree days 10 14  
Year to date cooling degree days 48 26  
Growing Degree Days 8 (Base 50)    
Moisture  
Dew Point 54 °F    
Average Humidity 73    
Maximum Humidity 86    
Minimum Humidity 59    
Precipitation  
Precipitation T in 0.17 in 3.72 in (1988)
Month to date precipitation 2.56 2.65  
Year to date precipitation 15.36 7.87  
Sea Level Pressure  
Sea Level Pressure 30.05 in    
Wind  
Wind Speed 16 mph (SSE)    
Max Wind Speed 32 mph    
Max Gust Speed 40 mph    
Visibility 10 miles    
Events Rain , Thunderstorm    
T = Trace of Precipitation, MM = Missing Value Source: NWS Daily Summary

Daily Weather History Graph

Daily Weather History Graph

Search for Another Location

Airport:

Trip Planner

Search our weather history database for the weather conditions in past years. The results will help you decide how hot, cold, wet, or windy it might be!

Date:

Astronomy

Feb. 18, 2013 Rise Set
Actual Time 6:44 AM CST 5:58 PM CST
Civil Twilight 6:20 AM CST 6:23 PM CST
Nautical Twilight 5:52 AM CST 6:51 PM CST
Astronomical Twilight 5:24 AM CST 7:19 PM CST
Moon 11:57 AM CST (2/18) 1:12 AM CST (2/18)
Length of Visible Light 12h 03m
Length of Day
11h 14m
First Quarter, 58% of the Moon is Illuminated
Feb 18
First Quarter
Feb 25
Full
Mar 4
Last Quarter
Mar 11
New
Mar 19
First Quarter

Hourly Weather History & Observations

Time (CST) Temp. Dew Point Humidity Pressure Visibility Wind Dir Wind Speed Gust Speed Precip Events Conditions
12:53 AM 48.0 °F 43.0 °F 83% 30.19 in 10.0 mi SE 8.1 mph - N/A   Clear
1:53 AM 46.9 °F 42.1 °F 83% 30.17 in 10.0 mi SE 8.1 mph - N/A   Clear
2:53 AM 48.9 °F 44.1 °F 83% 30.15 in 10.0 mi SE 8.1 mph - N/A   Clear
3:53 AM 51.1 °F 45.0 °F 80% 30.13 in 10.0 mi SE 10.4 mph - N/A   Clear
4:53 AM 52.0 °F 46.0 °F 80% 30.12 in 10.0 mi SE 10.4 mph - N/A   Scattered Clouds
5:53 AM 52.0 °F 46.0 °F 80% 30.12 in 10.0 mi SE 10.4 mph - N/A   Mostly Cloudy
6:53 AM 54.0 °F 48.0 °F 80% 30.12 in 10.0 mi SE 9.2 mph - N/A   Overcast
7:53 AM 57.9 °F 50.0 °F 75% 30.11 in 10.0 mi SE 10.4 mph - N/A   Overcast
8:53 AM 62.1 °F 53.1 °F 72% 30.13 in 10.0 mi SSE 13.8 mph - N/A   Overcast
9:53 AM 66.0 °F 54.0 °F 65% 30.12 in 10.0 mi SSE 16.1 mph - N/A   Overcast
10:53 AM 68.0 °F 53.1 °F 59% 30.12 in 10.0 mi SSE 17.3 mph 25.3 mph N/A   Overcast
11:53 AM 64.9 °F 55.9 °F 73% 30.10 in 10.0 mi SSE 18.4 mph - 0.00 in Rain Light Rain
12:53 PM 69.1 °F 55.9 °F 63% 30.06 in 10.0 mi SSE 23.0 mph 28.8 mph 0.00 in   Mostly Cloudy
1:53 PM 66.0 °F 57.0 °F 73% 30.02 in 10.0 mi SSE 27.6 mph 36.8 mph N/A   Overcast
2:53 PM 66.9 °F 55.9 °F 68% 30.01 in 10.0 mi SSE 25.3 mph 34.5 mph N/A   Overcast
3:53 PM 69.1 °F 57.0 °F 65% 29.98 in 7.0 mi SSE 23.0 mph 32.2 mph N/A   Overcast
4:53 PM 68.0 °F 57.9 °F 70% 29.96 in 10.0 mi SSE 24.2 mph 33.4 mph N/A   Overcast
5:53 PM 66.9 °F 57.9 °F 73% 29.96 in 10.0 mi SSE 19.6 mph 31.1 mph N/A   Overcast
6:19 PM 66.2 °F 59.0 °F 78% 29.97 in 10.0 mi SSE 20.7 mph 26.5 mph N/A   Overcast
6:53 PM 66.0 °F 59.0 °F 78% 29.96 in 10.0 mi SSE 23.0 mph 36.8 mph N/A   Overcast
7:53 PM 64.9 °F 59.0 °F 81% 29.96 in 10.0 mi SSE 16.1 mph - N/A   Mostly Cloudy
8:53 PM 66.0 °F 60.1 °F 81% 29.96 in 10.0 mi South 24.2 mph 29.9 mph N/A   Mostly Cloudy
9:53 PM 66.9 °F 61.0 °F 81% 29.97 in 10.0 mi South 19.6 mph 27.6 mph N/A   Overcast
10:13 PM 66.2 °F 62.6 °F 88% 29.96 in 10.0 mi South 19.6 mph 28.8 mph N/A   Overcast
10:53 PM 68.0 °F 61.0 °F 78% 29.98 in 10.0 mi South 11.5 mph 50.6 mph N/A   Overcast
11:53 PM 66.9 °F 61.0 °F 81% 29.99 in 9.0 mi SSW 16.1 mph 26.5 mph 0.00 in Rain , Thunderstorm Rain